Total_Precipitation_Accumulation
0.00 0.00 0.00 0.00 0.00 0.00 0.01 0.01 0.01 0.01 0.01 0.01 0.03 0.06 0.08 0.11 0.13 0.14 0.17 0.22 0.25 0.27 0.31 0.38 0.42 0.45 0.50 0.48 0.45 0.42 0.39 0.44 0.41 0.10 0.03 0.05 0.14 0.20 0.21 0.21 0.23 0.22 0.19
0.00 0.00 0.00 0.00 0.00 0.00 0.01 0.01 0.01 0.01 0.01 0.02 0.06 0.12 0.15 0.18 0.18 0.19 0.22 0.32 0.43 0.44 0.41 0.43 0.46 0.49 0.55 0.57 0.59 0.53 0.43 0.36 0.39 0.24 0.06 0.05 0.10 0.21 0.26 0.26 0.25 0.23 0.20
0.00 0.00 0.00 0.00 0.00 0.00 0.00 0.00 0.00 0.01 0.01 0.02 0.08 0.19 0.25 0.30 0.30 0.28 0.31 0.37 0.52 0.65 0.67 0.67 0.62 0.58 0.59 0.59 0.62 0.59 0.50 0.39 0.35 0.31 0.16 0.08 0.10 0.20 0.32 0.35 0.31 0.27 0.23
0.00 0.00 0.00 0.00 0.00 0.00 0.00 0.00 0.00 0.01 0.02 0.04 0.09 0.19 0.29 0.41 0.53 0.55 0.57 0.55 0.58 0.67 0.74 0.79 0.79 0.81 0.76 0.71 0.69 0.64 0.58 0.52 0.43 0.38 0.27 0.17 0.14 0.20 0.35 0.43 0.38 0.32 0.28
0.00 0.00 0.00 0.00 0.00 0.00 0.00 0.00 0.00 0.01 0.02 0.05 0.06 0.11 0.21 0.48 0.88 0.91 0.82 0.74 0.61 0.53 0.52 0.56 0.66 0.81 0.88 0.91 0.93 0.83 0.76 0.75 0.63 0.52 0.42 0.32 0.25 0.28 0.40 0.47 0.51 0.45 0.38
0.00 0.00 0.00 0.00 0.00 0.00 0.00 0.00 0.00 0.01 0.02 0.04 0.04 0.06 0.14 0.42 0.84 0.90 0.69 0.51 0.37 0.34 0.35 0.34 0.37 0.52 0.63 0.71 0.81 0.81 0.84 0.94 0.95 0.81 0.61 0.47 0.35 0.35 0.41 0.52 0.61 0.63 0.54
0.00 0.00 0.00 0.00 0.00 0.00 0.00 0.00 0.00 0.01 0.02 0.04 0.03 0.03 0.06 0.26 0.65 0.74 0.51 0.29 0.20 0.18 0.20 0.19 0.20 0.30 0.39 0.43 0.51 0.55 0.61 0.74 0.92 0.98 0.89 0.67 0.50 0.39 0.46 0.54 0.59 0.66 0.62
0.00 0.00 0.00 0.00 0.00 0.00 0.00 0.00 0.01 0.01 0.02 0.03 0.03 0.02 0.03 0.12 0.49 0.66 0.47 0.21 0.13 0.12 0.14 0.12 0.10 0.15 0.28 0.38 0.46 0.47 0.47 0.58 0.82 0.99 1.09 1.00 0.80 0.65 0.67 0.74 0.76 0.69 0.67
0.00 0.00 0.00 0.00 0.00 0.00 0.01 0.01 0.01 0.01 0.01 0.02 0.02 0.02 0.01 0.04 0.32 0.65 0.55 0.23 0.12 0.10 0.13 0.14 0.09 0.07 0.21 0.29 0.28 0.26 0.27 0.39 0.55 0.76 0.85 0.85 0.81 0.79 0.80 0.86 0.86 0.78 0.87
0.00 0.00 0.00 0.00 0.00 0.01 0.01 0.01 0.01 0.01 0.02 0.02 0.01 0.01 0.01 0.02 0.17 0.57 0.69 0.29 0.12 0.09 0.08 0.10 0.13 0.14 0.20 0.19 0.13 0.14 0.21 0.29 0.32 0.36 0.42 0.46 0.50 0.55 0.67 0.84 0.97 0.96 1.04
0.00 0.00 0.00 0.00 0.00 0.01 0.01 0.01 0.01 0.01 0.02 0.01 0.01 0.01 0.01 0.02 0.06 0.34 0.70 0.50 0.22 0.12 0.09 0.10 0.11 0.14 0.14 0.11 0.08 0.09 0.20 0.21 0.18 0.23 0.29 0.34 0.42 0.51 0.63 0.79 0.96 1.06 1.10
0.00 0.00 0.00 0.00 0.01 0.01 0.01 0.02 0.02 0.02 0.02 0.02 0.02 0.02 0.02 0.02 0.06 0.22 0.41 0.47 0.31 0.12 0.10 0.09 0.10 0.09 0.07 0.05 0.04 0.06 0.07 0.06 0.07 0.13 0.18 0.25 0.35 0.48 0.62 0.78 0.92 1.02 1.08
0.00 0.00 0.00 0.00 0.00 0.01 0.02 0.02 0.02 0.02 0.04 0.05 0.05 0.03 0.02 0.03 0.09 0.20 0.20 0.20 0.21 0.16 0.18 0.14 0.06 0.03 0.02 0.01 0.01 0.02 0.01 0.02 0.05 0.09 0.14 0.21 0.32 0.45 0.52 0.60 0.72 0.86 0.94
0.00 0.00 0.00 0.01 0.01 0.02 0.02 0.02 0.03 0.05 0.13 0.15 0.10 0.06 0.05 0.09 0.22 0.37 0.23 0.10 0.11 0.13 0.13 0.09 0.02 0.01 0.00 0.00 0.00 0.00 0.00 0.02 0.05 0.08 0.13 0.17 0.21 0.30 0.40 0.53 0.64 0.76 0.86
0.00 0.00 0.00 0.01 0.02 0.02 0.02 0.03 0.04 0.07 0.19 0.25 0.15 0.13 0.16 0.29 0.39 0.40 0.27 0.19 0.19 0.20 0.09 0.02 0.00 0.00 0.00 0.00 0.00 0.00 0.00 0.01 0.02 0.04 0.08 0.12 0.16 0.24 0.34 0.46 0.61 0.71 0.83
0.00 0.00 0.01 0.02 0.02 0.03 0.03 0.03 0.03 0.06 0.10 0.11 0.10 0.14 0.16 0.32 0.31 0.20 0.15 0.12 0.16 0.16 0.05 0.02 0.01 0.01 0.01 0.01 0.01 0.01 0.00 0.01 0.02 0.03 0.06 0.10 0.16 0.24 0.31 0.39 0.52 0.67 0.80
0.01 0.01 0.02 0.03 0.03 0.03 0.03 0.05 0.05 0.04 0.04 0.04 0.05 0.07 0.13 0.21 0.18 0.12 0.09 0.04 0.04 0.03 0.01 0.01 0.01 0.02 0.02 0.02 0.02 0.01 0.01 0.01 0.01 0.03 0.05 0.08 0.12 0.18 0.25 0.33 0.43 0.56 0.72
0.01 0.01 0.02 0.03 0.04 0.04 0.05 0.06 0.07 0.07 0.06 0.03 0.03 0.04 0.07 0.11 0.11 0.08 0.05 0.03 0.02 0.01 0.01 0.02 0.03 0.03 0.03 0.03 0.03 0.02 0.02 0.01 0.01 0.02 0.03 0.05 0.09 0.15 0.21 0.28 0.36 0.50 0.63
0.01 0.02 0.03 0.04 0.05 0.05 0.06 0.07 0.07 0.07 0.06 0.04 0.03 0.03 0.05 0.06 0.05 0.05 0.04 0.04 0.03 0.02 0.02 0.03 0.03 0.04 0.04 0.04 0.03 0.02 0.02 0.02 0.02 0.02 0.02 0.03 0.07 0.11 0.17 0.23 0.31 0.41 0.52
0.01 0.02 0.03 0.04 0.05 0.06 0.07 0.07 0.08 0.07 0.07 0.06 0.05 0.06 0.11 0.10 0.08 0.06 0.05 0.04 0.03 0.03 0.03 0.04 0.04 0.05 0.05 0.04 0.04 0.03 0.03 0.02 0.02 0.02 0.02 0.03 0.04 0.08 0.13 0.19 0.25 0.32 0.43
0.02 0.02 0.02 0.03 0.04 0.06 0.08 0.08 0.08 0.09 0.08 0.07 0.05 0.06 0.16 0.14 0.08 0.06 0.05 0.05 0.07 0.07 0.06 0.06 0.06 0.06 0.05 0.05 0.04 0.03 0.03 0.02 0.02 0.03 0.03 0.03 0.03 0.05 0.08 0.13 0.19 0.27 0.36
0.04 0.03 0.03 0.04 0.06 0.07 0.09 0.09 0.10 0.10 0.09 0.08 0.06 0.05 0.09 0.09 0.07 0.07 0.06 0.06 0.07 0.08 0.08 0.08 0.08 0.08 0.09 0.08 0.07 0.06 0.04 0.03 0.03 0.03 0.03 0.02 0.02 0.03 0.05 0.08 0.14 0.21 0.28
0.03 0.03 0.04 0.05 0.06 0.08 0.09 0.09 0.10 0.11 0.09 0.08 0.07 0.07 0.07 0.08 0.07 0.07 0.08 0.07 0.07 0.07 0.07 0.08 0.09 0.09 0.09 0.08 0.08 0.08 0.07 0.06 0.05 0.04 0.04 0.03 0.02 0.03 0.04 0.07 0.10 0.17 0.26
0.03 0.04 0.06 0.07 0.08 0.09 0.11 0.11 0.11 0.11 0.10 0.09 0.08 0.08 0.08 0.08 0.07 0.07 0.07 0.07 0.07 0.07 0.08 0.11 0.11 0.11 0.11 0.10 0.08 0.06 0.06 0.06 0.06 0.05 0.04 0.04 0.03 0.03 0.04 0.06 0.09 0.14 0.23
0.04 0.06 0.08 0.10 0.12 0.13 0.13 0.12 0.12 0.11 0.10 0.09 0.09 0.09 0.08 0.08 0.07 0.07 0.06 0.06 0.07 0.07 0.08 0.11 0.13 0.14 0.13 0.11 0.10 0.08 0.07 0.06 0.07 0.10 0.10 0.08 0.06 0.05 0.06 0.08 0.10 0.14 0.20
0.06 0.08 0.10 0.13 0.15 0.15 0.15 0.15 0.13 0.12 0.11 0.10 0.09 0.09 0.09 0.09 0.09 0.08 0.08 0.09 0.10 0.09 0.09 0.11 0.14 0.16 0.15 0.13 0.11 0.10 0.08 0.08 0.11 0.11 0.12 0.11 0.08 0.07 0.07 0.08 0.09 0.12 0.18